When you browse on this site, cookies collect data to enhance your experience and personalize the content and advertising you see.
Visit our Privacy Policy to learn more. By continuing to use the site, you agree to this use of cookies and data.
  • In Romania
  • List of Countries
  • For 7 days
  • Water Temperature
  • Satellite Maps
  • Weather Map
  • Weather Widgets
  • user-avatar
    Login

    Hourly Weather Klyakovo

    Today, 26 March, Tuesday

    Time Temperature Precipitation Wind Pressure Humidity
    00:00 -3°C° 0 mm 2 mps 737 mmHg 84%
    01:00 -3°C° 0 mm 2 mps 737 mmHg 85%
    02:00 -3°C° 0 mm 2 mps 737 mmHg 85%
    03:00 -3°C° 0 mm 2 mps 736 mmHg 86%
    04:00 -3°C° 0 mm 2 mps 736 mmHg 87%
    05:00 -4°C° 0 mm 2 mps 736 mmHg 88%
    06:00 -3°C° 0 mm 2 mps 736 mmHg 86%
    07:00 -2°C° 0 mm 2 mps 736 mmHg 84%
    08:00 -1°C° 0 mm 2 mps 736 mmHg 82%
    09:00 +1°C° 0.2 mm 2 mps 736 mmHg 81%
    10:00 +1°C° 0.2 mm 3 mps 736 mmHg 79%
    11:00 +2°C° 0.2 mm 3 mps 736 mmHg 78%
    12:00 +1°C° 0.2 mm 4 mps 736 mmHg 75%
    13:00 +1°C° 0.2 mm 4 mps 737 mmHg 72%
    14:00 +1°C° 0.2 mm 4 mps 737 mmHg 69%
    15:00 0°C° 0 mm 4 mps 737 mmHg 70%
    16:00 0°C° 0 mm 3 mps 737 mmHg 71%
    17:00 0°C° 0 mm 3 mps 737 mmHg 72%
    18:00 -1°C° 0 mm 2 mps 738 mmHg 76%
    19:00 -3°C° 0 mm 2 mps 738 mmHg 81%
    20:00 -4°C° 0 mm 2 mps 739 mmHg 85%
    21:00 -4°C° 0 mm 2 mps 739 mmHg 86%
    22:00 -4°C° 0 mm 2 mps 740 mmHg 87%
    23:00 -4°C° 0 mm 2 mps 740 mmHg 87%

    Tomorrow, 27 March, Wednesday

    Time Temperature Precipitation Wind Pressure Humidity
    00:00 -4°C° 0 mm 2 mps 740 mmHg 86%
    01:00 -5°C° 0 mm 2 mps 740 mmHg 86%
    02:00 -6°C° 0 mm 3 mps 741 mmHg 85%
    03:00 -6°C° 0 mm 3 mps 741 mmHg 86%
    04:00 -6°C° 0 mm 3 mps 741 mmHg 86%
    05:00 -5°C° 0 mm 3 mps 741 mmHg 87%
    06:00 -5°C° 0.2 mm 3 mps 742 mmHg 86%
    07:00 -4°C° 0.2 mm 4 mps 742 mmHg 84%
    08:00 -3°C° 0.2 mm 4 mps 743 mmHg 83%
    09:00 -3°C° 0.2 mm 4 mps 744 mmHg 79%
    10:00 -2°C° 0.2 mm 5 mps 744 mmHg 76%
    11:00 -2°C° 0.2 mm 5 mps 745 mmHg 72%
    12:00 -2°C° 0 mm 5 mps 745 mmHg 70%
    13:00 -1°C° 0 mm 5 mps 745 mmHg 67%
    14:00 -1°C° 0 mm 5 mps 746 mmHg 65%
    15:00 -1°C° 0 mm 5 mps 746 mmHg 66%
    16:00 -2°C° 0 mm 4 mps 747 mmHg 68%
    17:00 -2°C° 0 mm 4 mps 747 mmHg 70%
    18:00 -3°C° 0 mm 4 mps 748 mmHg 72%
    19:00 -2°C° 0 mm 3 mps 748 mmHg 75%
    20:00 -4°C° 0 mm 3 mps 749 mmHg 78%
    21:00 -4°C° 0 mm 3 mps 749 mmHg 80%
    22:00 -5°C° 0 mm 3 mps 749 mmHg 82%
    23:00 -5°C° 0 mm 3 mps 750 mmHg 84%

    Day after tomorrow, 28 March, Thursday

    Time Temperature Precipitation Wind Pressure Humidity
    00:00 -6°C° 0 mm 3 mps 750 mmHg 85%
    01:00 -6°C° 0 mm 3 mps 750 mmHg 85%
    02:00 -6°C° 0 mm 3 mps 750 mmHg 85%
    03:00 -6°C° 0 mm 3 mps 751 mmHg 85%
    04:00 -6°C° 0 mm 2 mps 751 mmHg 85%
    05:00 -6°C° 0 mm 2 mps 751 mmHg 85%
    06:00 -5°C° 0 mm 2 mps 751 mmHg 80%
    07:00 -5°C° 0 mm 3 mps 752 mmHg 75%
    08:00 -4°C° 0 mm 3 mps 752 mmHg 70%
    09:00 -2°C° 0 mm 3 mps 752 mmHg 65%
    10:00 0°C° 0 mm 3 mps 752 mmHg 59%
    11:00 +1°C° 0 mm 3 mps 752 mmHg 53%
    12:00 +1°C° 0 mm 3 mps 751 mmHg 54%
    13:00 +2°C° 0 mm 3 mps 751 mmHg 56%
    14:00 +2°C° 0 mm 3 mps 751 mmHg 57%
    15:00 +2°C° 0 mm 3 mps 750 mmHg 61%
    16:00 +3°C° 0 mm 2 mps 750 mmHg 65%
    17:00 +2°C° 0 mm 2 mps 750 mmHg 69%
    18:00 +2°C° 0 mm 2 mps 749 mmHg 74%
    19:00 +1°C° 0 mm 2 mps 749 mmHg 79%
    20:00 +1°C° 0 mm 2 mps 749 mmHg 84%
    21:00 -1°C° 0 mm 2 mps 748 mmHg 86%
    22:00 -1°C° 0 mm 3 mps 748 mmHg 87%
    23:00 -1°C° 0 mm 3 mps 747 mmHg 89%

    29 March, Friday

    Time Temperature Precipitation Wind Pressure Humidity
    00:00 0°C° 0.4 mm 3 mps 747 mmHg 89%
    01:00 0°C° 0.4 mm 3 mps 746 mmHg 88%
    02:00 -1°C° 0.4 mm 4 mps 746 mmHg 88%
    03:00 0°C° 0.1 mm 4 mps 745 mmHg 88%
    04:00 0°C° 0.1 mm 4 mps 745 mmHg 89%
    05:00 0°C° 0.1 mm 4 mps 744 mmHg 89%
    06:00 0°C° 0 mm 4 mps 744 mmHg 88%
    07:00 0°C° 0 mm 5 mps 744 mmHg 87%
    08:00 +1°C° 0 mm 5 mps 744 mmHg 86%
    09:00 +1°C° 0 mm 5 mps 745 mmHg 82%
    10:00 +2°C° 0 mm 5 mps 745 mmHg 78%
    11:00 +2°C° 0 mm 5 mps 745 mmHg 74%
    12:00 +3°C° 0 mm 5 mps 745 mmHg 71%
    13:00 +5°C° 0 mm 5 mps 745 mmHg 67%
    14:00 +6°C° 0 mm 5 mps 745 mmHg 64%
    15:00 +5°C° 0 mm 4 mps 745 mmHg 71%
    16:00 +4°C° 0 mm 3 mps 745 mmHg 78%
    17:00 +5°C° 0 mm 2 mps 745 mmHg 85%
    18:00 +4°C° 0 mm 2 mps 744 mmHg 88%
    19:00 +3°C° 0 mm 2 mps 744 mmHg 90%
    20:00 +3°C° 0 mm 2 mps 744 mmHg 93%
    21:00 +3°C° 0 mm 2 mps 744 mmHg 92%
    22:00 +3°C° 0 mm 2 mps 743 mmHg 91%
    23:00 +2°C° 0 mm 3 mps 743 mmHg 90%

    30 March, Saturday

    Time Temperature Precipitation Wind Pressure Humidity
    00:00 +2°C° 0 mm 3 mps 742 mmHg 91%
    01:00 +2°C° 0 mm 3 mps 742 mmHg 91%
    02:00 +2°C° 0 mm 3 mps 741 mmHg 92%
    03:00 +1°C° 0 mm 4 mps 741 mmHg 92%
    04:00 +3°C° 0 mm 4 mps 740 mmHg 92%
    05:00 +3°C° 0 mm 4 mps 739 mmHg 92%
    06:00 +2°C° 0 mm 5 mps 739 mmHg 90%
    07:00 +3°C° 0 mm 5 mps 739 mmHg 87%
    08:00 +4°C° 0 mm 6 mps 738 mmHg 84%
    09:00 +4°C° 0 mm 6 mps 738 mmHg 80%
    10:00 +5°C° 0 mm 6 mps 738 mmHg 77%
    11:00 +7°C° 0 mm 6 mps 738 mmHg 73%
    12:00 +7°C° 0 mm 6 mps 738 mmHg 70%
    13:00 +8°C° 0 mm 7 mps 738 mmHg 68%
    14:00 +8°C° 0 mm 7 mps 738 mmHg 65%
    15:00 +7°C° 0.1 mm 6 mps 738 mmHg 67%
    16:00 +7°C° 0.1 mm 5 mps 739 mmHg 69%
    17:00 +6°C° 0.1 mm 5 mps 739 mmHg 70%
    18:00 +4°C° 0 mm 4 mps 739 mmHg 73%
    19:00 +3°C° 0 mm 3 mps 740 mmHg 76%
    20:00 +3°C° 0 mm 2 mps 740 mmHg 78%
    21:00 +3°C° 0 mm 2 mps 740 mmHg 81%
    22:00 +3°C° 0 mm 2 mps 740 mmHg 84%
    23:00 +3°C° 0 mm 2 mps 739 mmHg 87%

    31 March, Sunday

    Time Temperature Precipitation Wind Pressure Humidity
    00:00 +2°C° 0.1 mm 3 mps 739 mmHg 85%
    01:00 +2°C° 0.1 mm 3 mps 738 mmHg 84%
    02:00 +1°C° 0.1 mm 4 mps 738 mmHg 83%
    03:00 0°C° 0 mm 4 mps 737 mmHg 84%
    04:00 0°C° 0 mm 4 mps 737 mmHg 85%
    05:00 0°C° 0 mm 4 mps 737 mmHg 86%
    06:00 0°C° 0 mm 4 mps 736 mmHg 80%
    07:00 +1°C° 0 mm 5 mps 736 mmHg 75%
    08:00 +2°C° 0 mm 5 mps 736 mmHg 69%
    09:00 +2°C° 0.3 mm 5 mps 736 mmHg 69%
    10:00 +2°C° 0.3 mm 6 mps 736 mmHg 69%
    11:00 +2°C° 0.3 mm 6 mps 737 mmHg 68%
    12:00 +2°C° 0.1 mm 6 mps 737 mmHg 62%
    13:00 +2°C° 0.1 mm 6 mps 738 mmHg 55%
    14:00 +3°C° 0.1 mm 6 mps 738 mmHg 49%
    15:00 +2°C° 0 mm 5 mps 739 mmHg 49%
    16:00 +1°C° 0 mm 5 mps 739 mmHg 50%
    17:00 +1°C° 0 mm 4 mps 740 mmHg 51%
    18:00 0°C° 0 mm 4 mps 740 mmHg 57%
    19:00 0°C° 0 mm 3 mps 741 mmHg 63%
    20:00 -1°C° 0 mm 3 mps 741 mmHg 69%
    21:00 -1°C° 0 mm 3 mps 742 mmHg 71%
    22:00 -2°C° 0 mm 3 mps 742 mmHg 73%
    23:00 -2°C° 0 mm 3 mps 742 mmHg 75%
    Show more